Location: Unspecified
(0.0000°N, 0.0000°E)
Time: 07:32:09
(UTC+02:00)

HST - Visible Passes

Search period start: 23 August 2014 00:00
Search period end: 02 September 2014 00:00
Orbit: 547 x 551 km, 28.5° (Epoch: 22 August)

Date Brightness Start Highest point End Pass type
(mag) Time Alt. Az. Time Alt. Az. Time Alt. Az.
27 Aug 3.3 21:58:03 10° SW 21:58:54 15° SW 21:58:54 15° SW visible
28 Aug 2.5 21:51:00 10° SW 21:53:02 28° SW 21:53:02 28° SW visible
29 Aug 1.5 21:44:04 10° WSW 21:47:15 50° WSW 21:47:15 50° WSW visible
30 Aug 1.4 21:37:17 10° WSW 21:41:20 50° NNW 21:41:29 50° NNW visible
31 Aug 2.2 21:30:40 10° W 21:34:26 33° NNW 21:35:44 27° N visible
01 Sep 2.9 21:24:14 10° W 21:27:33 23° NNW 21:29:56 14° NNE visible
